Time,TemperatureF,DewpointF,PressureIn,WindDirection,WindDirectionDegrees,WindSpeedMPH,WindSpeedGustMPH,Humidity,HourlyPrecipIn,Conditions,Clouds,dailyrainin,SoftwareType,DateUTC
2013-11-11 00:01:00,43.7,29.0,29.98,WSW,250,7.1,9.9,56,0.00,,SCT070,0.00,VWS V14.01,2013-11-11 05:01:00,
2013-11-11 00:11:00,43.6,29.0,29.98,West,261,4.3,7.1,56,0.00,,BKN070,0.00,VWS V14.01,2013-11-11 05:11:00,
2013-11-11 00:21:00,43.6,29.0,29.99,West,260,5.7,5.7,56,0.00,,BKN070,0.00,VWS V14.01,2013-11-11 05:21:00,
2013-11-11 00:31:00,43.4,28.8,29.99,West,261,2.8,4.3,56,0.00,,BKN070,0.00,VWS V14.01,2013-11-11 05:31:00,
2013-11-11 00:40:00,43.3,28.2,29.99,WNW,283,0.0,12.8,55,0.00,,BKN070,0.00,VWS V14.01,2013-11-11 05:40:00,
2013-11-11 00:50:00,43.1,28.0,30.00,WNW,284,0.0,4.3,55,0.00,,BKN070,0.00,VWS V14.01,2013-11-11 05:50:00,
2013-11-11 01:00:00,43.1,28.0,30.00,WNW,299,9.9,15.6,55,0.00,,BKN070,0.00,VWS V14.01,2013-11-11 06:00:00,
2013-11-11 01:10:00,43.2,27.7,30.01,WSW,242,0.0,4.3,54,0.00,,BKN060,0.00,VWS V14.01,2013-11-11 06:10:00,
2013-11-11 01:20:00,43.0,27.5,30.01,WNW,292,1.4,1.4,54,0.00,,BKN060,0.00,VWS V14.01,2013-11-11 06:20:00,
2013-11-11 01:30:00,43.0,27.0,30.01,NW,307,2.8,2.8,53,0.00,,BKN060,0.00,VWS V14.01,2013-11-11 06:30:00,
2013-11-11 01:41:00,42.7,27.2,30.02,NNE,25,4.3,4.3,54,0.00,,BKN060,0.00,VWS V14.01,2013-11-11 06:41:00,
2013-11-11 01:51:00,42.3,28.2,30.03,NNW,334,5.7,11.4,57,0.00,,BKN060,0.00,VWS V14.01,2013-11-11 06:51:00,
2013-11-11 02:01:00,41.7,28.4,30.03,WSW,237,8.5,17.0,59,0.00,,BKN060,0.00,VWS V14.01,2013-11-11 07:01:00,
2013-11-11 02:11:00,41.2,28.8,30.03,SW,227,4.3,11.4,61,0.00,,SCT055,0.00,VWS V14.01,2013-11-11 07:11:00,
2013-11-11 02:21:00,40.7,28.3,30.03,ENE,57,5.7,9.9,61,0.00,,SCT055,0.00,VWS V14.01,2013-11-11 07:21:00,
2013-11-11 02:31:00,40.3,27.9,30.04,South,189,0.0,4.3,61,0.00,,SCT055,0.00,VWS V14.01,2013-11-11 07:31:00,
2013-11-11 02:41:00,40.0,27.2,30.05,West,267,0.0,9.9,60,0.00,,SCT055,0.00,VWS V14.01,2013-11-11 07:41:00,
2013-11-11 02:51:00,39.7,27.0,30.05,WNW,290,1.4,11.4,60,0.00,,SCT055,0.00,VWS V14.01,2013-11-11 07:51:00,
2013-11-11 03:01:00,40.0,26.8,30.06,SSW,202,7.1,11.4,59,0.00,,SCT055,0.00,VWS V14.01,2013-11-11 08:01:00,
2013-11-11 03:11:00,39.9,26.8,30.06,West,272,0.0,8.5,59,0.00,,CLR,0.00,VWS V14.01,2013-11-11 08:11:00,
2013-11-11 03:21:00,39.6,26.9,30.06,WSW,256,2.8,14.2,60,0.00,,CLR,0.00,VWS V14.01,2013-11-11 08:21:00,
2013-11-11 03:31:00,39.5,26.4,30.07,West,281,1.4,5.7,59,0.00,,CLR,0.00,VWS V14.01,2013-11-11 08:31:00,
2013-11-11 03:41:00,39.1,26.4,30.07,WNW,295,4.3,5.7,60,0.00,,CLR,0.00,VWS V14.01,2013-11-11 08:41:00,
2013-11-11 03:51:00,38.9,25.8,30.08,WNW,298,18.5,18.5,59,0.00,,CLR,0.00,VWS V14.01,2013-11-11 08:51:00,
2013-11-11 04:01:00,38.8,25.3,30.08,West,267,4.3,14.2,58,0.00,,CLR,0.00,VWS V14.01,2013-11-11 09:01:00,
2013-11-11 04:11:00,38.9,25.4,30.08,WNW,294,4.3,5.7,58,0.00,,CLR,0.00,VWS V14.01,2013-11-11 09:11:00,
2013-11-11 04:21:00,38.5,25.0,30.09,West,276,9.9,9.9,58,0.00,,CLR,0.00,VWS V14.01,2013-11-11 09:21:00,
2013-11-11 04:31:00,38.2,24.7,30.09,SW,233,4.3,11.4,58,0.00,,CLR,0.00,VWS V14.01,2013-11-11 09:31:00,
2013-11-11 04:41:00,38.1,25.1,30.09,WNW,285,1.4,5.7,59,0.00,,CLR,0.00,VWS V14.01,2013-11-11 09:41:00,
2013-11-11 04:51:00,38.1,25.1,30.10,WSW,245,0.0,8.5,59,0.00,,CLR,0.00,VWS V14.01,2013-11-11 09:51:00,
2013-11-11 05:01:00,37.8,25.2,30.11,WNW,290,0.0,0.0,60,0.00,,CLR,0.00,VWS V14.01,2013-11-11 10:01:00,
2013-11-11 05:11:00,38.1,25.5,30.11,WSW,253,5.7,5.7,60,0.00,,CLR,0.00,VWS V14.01,2013-11-11 10:11:00,
2013-11-11 05:21:00,38.1,25.1,30.12,NW,306,0.0,0.0,59,0.00,,CLR,0.00,VWS V14.01,2013-11-11 10:21:00,
2013-11-11 05:31:00,37.8,25.2,30.12,West,272,2.8,8.5,60,0.00,,CLR,0.00,VWS V14.01,2013-11-11 10:31:00,
2013-11-11 05:40:00,37.6,25.4,30.12,West,261,1.4,1.4,61,0.00,,CLR,0.00,VWS V14.01,2013-11-11 10:40:00,
2013-11-11 05:50:00,37.2,25.0,30.12,West,259,0.0,2.8,61,0.00,,CLR,0.00,VWS V14.01,2013-11-11 10:50:00,
2013-11-11 06:00:00,36.7,24.9,30.13,SW,236,0.0,0.0,62,0.00,,CLR,0.00,VWS V14.01,2013-11-11 11:00:00,
2013-11-11 06:10:00,36.3,25.3,30.13,South,189,0.0,0.0,64,0.00,,CLR,0.00,VWS V14.01,2013-11-11 11:10:00,
2013-11-11 06:20:00,36.3,25.3,30.13,South,187,0.0,0.0,64,0.00,,CLR,0.00,VWS V14.01,2013-11-11 11:20:00,
2013-11-11 06:30:00,35.5,24.9,30.14,SW,215,1.4,4.3,65,0.00,,CLR,0.00,VWS V14.01,2013-11-11 11:30:00,
2013-11-11 06:41:00,35.4,25.2,30.14,SSW,212,2.8,2.8,66,0.00,,CLR,0.00,VWS V14.01,2013-11-11 11:41:00,
2013-11-11 06:51:00,35.4,25.2,30.15,West,276,1.4,4.3,66,0.00,,CLR,0.00,VWS V14.01,2013-11-11 11:51:00,
2013-11-11 07:01:00,35.8,25.6,30.15,West,276,0.0,2.8,66,0.00,,CLR,0.00,VWS V14.01,2013-11-11 12:01:00,
2013-11-11 07:11:00,35.8,25.6,30.16,West,263,0.0,1.4,66,0.00,,CLR,0.00,VWS V14.01,2013-11-11 12:11:00,
2013-11-11 07:21:00,36.1,25.9,30.15,WNW,283,2.8,4.3,66,0.00,,CLR,0.00,VWS V14.01,2013-11-11 12:21:00,
2013-11-11 07:31:00,36.7,26.1,30.16,WNW,290,1.4,2.8,65,0.00,,CLR,0.00,VWS V14.01,2013-11-11 12:31:00,
2013-11-11 07:41:00,37.7,26.6,30.16,SW,232,0.0,2.8,64,0.00,,CLR,0.00,VWS V14.01,2013-11-11 12:41:00,
2013-11-11 07:51:00,37.9,26.5,30.16,WNW,283,0.0,4.3,63,0.00,,CLR,0.00,VWS V14.01,2013-11-11 12:51:00,
2013-11-11 08:01:00,38.7,26.8,30.17,SSW,204,0.0,1.4,62,0.00,,CLR,0.00,VWS V14.01,2013-11-11 13:01:00,
2013-11-11 08:11:00,39.5,27.2,30.17,WNW,286,1.4,2.8,61,0.00,,CLR,0.00,VWS V14.01,2013-11-11 13:11:00,
2013-11-11 08:21:00,39.9,27.6,30.16,WSW,239,2.8,4.3,61,0.00,,CLR,0.00,VWS V14.01,2013-11-11 13:21:00,
2013-11-11 08:31:00,40.7,27.5,30.17,SSW,193,2.8,4.3,59,0.00,,CLR,0.00,VWS V14.01,2013-11-11 13:31:00,
2013-11-11 08:41:00,41.4,27.8,30.17,NNW,330,2.8,9.9,58,0.00,,CLR,0.00,VWS V14.01,2013-11-11 13:41:00,
2013-11-11 08:51:00,41.7,27.6,30.17,WSW,243,5.7,9.9,57,0.00,,CLR,0.00,VWS V14.01,2013-11-11 13:51:00,
2013-11-11 09:01:00,41.6,27.5,30.17,WNW,294,7.1,7.1,57,0.00,,CLR,0.00,VWS V14.01,2013-11-11 14:01:00,
2013-11-11 09:11:00,41.6,27.5,30.16,WNW,292,7.1,8.5,57,0.00,,CLR,0.00,VWS V14.01,2013-11-11 14:11:00,
2013-11-11 09:21:00,42.0,27.9,30.16,WNW,295,1.4,1.4,57,0.00,,CLR,0.00,VWS V14.01,2013-11-11 14:21:00,
2013-11-11 09:31:00,42.4,27.8,30.17,WNW,290,0.0,2.8,56,0.00,,CLR,0.00,VWS V14.01,2013-11-11 14:31:00,
2013-11-11 09:41:00,43.0,28.0,30.17,NW,305,7.1,8.5,55,0.00,,CLR,0.00,VWS V14.01,2013-11-11 14:41:00,
2013-11-11 09:51:00,42.9,27.4,30.17,WSW,252,8.5,9.9,54,0.00,,CLR,0.00,VWS V14.01,2013-11-11 14:51:00,
2013-11-11 10:01:00,43.1,28.0,30.17,North,0,0.0,4.3,55,0.00,,CLR,0.00,VWS V14.01,2013-11-11 15:01:00,
2013-11-11 10:11:00,43.6,28.1,30.16,North,0,0.0,4.3,54,0.00,,CLR,0.00,VWS V14.01,2013-11-11 15:11:00,
2013-11-11 10:21:00,43.7,27.7,30.16,WNW,284,1.4,4.3,53,0.00,,CLR,0.00,VWS V14.01,2013-11-11 15:21:00,
2013-11-11 10:31:00,44.0,28.0,30.15,West,266,0.0,5.7,53,0.00,,CLR,0.00,VWS V14.01,2013-11-11 15:31:00,
2013-11-11 10:40:00,44.2,27.7,30.15,NE,46,1.4,1.4,52,0.00,,CLR,0.00,VWS V14.01,2013-11-11 15:40:00,
2013-11-11 10:50:00,44.1,27.1,30.15,West,277,5.7,5.7,51,0.00,,CLR,0.00,VWS V14.01,2013-11-11 15:50:00,
2013-11-11 11:00:00,44.8,27.3,30.16,West,260,0.0,4.3,50,0.00,,CLR,0.00,VWS V14.01,2013-11-11 16:00:00,
2013-11-11 11:10:00,45.5,28.0,30.15,South,191,1.4,7.1,50,0.00,,BKN200,0.00,VWS V14.01,2013-11-11 16:10:00,
2013-11-11 11:20:00,45.8,27.7,30.14,SSW,209,4.3,4.3,49,0.00,,BKN200,0.00,VWS V14.01,2013-11-11 16:20:00,
2013-11-11 11:36:00,46.2,26.6,30.13,South,180,2.8,14.2,46,0.00,,BKN200,0.00,VWS V14.01,2013-11-11 16:36:00,
2013-11-11 11:50:00,45.6,26.5,30.12,South,170,4.3,7.1,47,0.00,,BKN200,0.00,VWS V14.01,2013-11-11 16:50:00,
2013-11-11 12:00:00,47.3,27.0,30.12,SSW,195,4.3,4.3,45,0.00,,BKN200,0.00,VWS V14.01,2013-11-11 17:00:00,
2013-11-11 12:10:00,48.1,27.2,30.11,NNE,22,1.4,7.1,44,0.00,,SCT200,0.00,VWS V14.01,2013-11-11 17:10:00,
2013-11-11 12:20:00,47.8,25.8,30.11,SSE,152,4.3,9.9,42,0.00,,SCT200,0.00,VWS V14.01,2013-11-11 17:20:00,
2013-11-11 12:30:00,47.4,25.5,30.10,SSE,158,5.7,7.1,42,0.00,,SCT200,0.00,VWS V14.01,2013-11-11 17:30:00,
2013-11-11 12:40:00,48.6,26.0,30.09,SSE,151,9.9,9.9,41,0.00,,SCT200,0.00,VWS V14.01,2013-11-11 17:40:00,
2013-11-11 12:50:00,48.4,25.2,30.09,South,190,4.3,7.1,40,0.00,,SCT200,0.00,VWS V14.01,2013-11-11 17:50:00,
2013-11-11 13:00:00,49.6,26.3,30.09,South,185,8.5,8.5,40,0.00,,SCT200,0.00,VWS V14.01,2013-11-11 18:00:00,
2013-11-11 13:10:00,48.9,25.0,30.09,SSE,157,11.4,11.4,39,0.00,,SCT200,0.00,VWS V14.01,2013-11-11 18:10:00,
2013-11-11 13:20:00,48.0,23.6,30.09,South,175,8.5,12.8,38,0.00,,SCT200,0.00,VWS V14.01,2013-11-11 18:20:00,
2013-11-11 13:30:00,47.4,24.3,30.08,SSE,164,4.3,11.4,40,0.00,,SCT200,0.00,VWS V14.01,2013-11-11 18:30:00,
2013-11-11 13:41:00,47.2,24.1,30.08,South,184,11.4,12.8,40,0.00,,SCT200,0.00,VWS V14.01,2013-11-11 18:41:00,
2013-11-11 13:51:00,46.9,24.5,30.08,SSW,194,5.7,8.5,41,0.00,,SCT200,0.00,VWS V14.01,2013-11-11 18:51:00,
2013-11-11 14:01:00,46.9,26.1,30.07,South,171,5.7,9.9,44,0.00,,SCT200,0.00,VWS V14.01,2013-11-11 19:01:00,
2013-11-11 14:11:00,46.3,26.7,30.07,South,190,11.4,11.4,46,0.00,,OVC120,0.00,VWS V14.01,2013-11-11 19:11:00,
2013-11-11 14:21:00,46.2,27.1,30.07,SSE,147,4.3,9.9,47,0.00,,OVC120,0.00,VWS V14.01,2013-11-11 19:21:00,
2013-11-11 14:31:00,46.2,27.6,30.07,SSE,154,4.3,5.7,48,0.00,,OVC120,0.00,VWS V14.01,2013-11-11 19:31:00,
2013-11-11 14:41:00,46.2,27.6,30.07,South,187,12.8,12.8,48,0.00,,OVC120,0.00,VWS V14.01,2013-11-11 19:41:00,
2013-11-11 14:51:00,46.2,27.6,30.07,SE,140,4.3,11.4,48,0.00,,OVC120,0.00,VWS V14.01,2013-11-11 19:51:00,
2013-11-11 15:01:00,46.1,28.5,30.07,South,171,12.8,14.2,50,0.00,,OVC120,0.00,VWS V14.01,2013-11-11 20:01:00,
2013-11-11 15:11:00,45.8,28.2,30.08,SSE,158,2.8,11.4,50,0.00,,OVC110,0.00,VWS V14.01,2013-11-11 20:11:00,
2013-11-11 15:21:00,45.8,28.2,30.07,SSE,158,11.4,12.8,50,0.00,,OVC110,0.00,VWS V14.01,2013-11-11 20:21:00,
2013-11-11 15:31:00,45.7,29.1,30.07,South,171,7.1,15.6,52,0.00,,OVC110,0.00,VWS V14.01,2013-11-11 20:31:00,
2013-11-11 15:41:00,45.5,28.9,30.06,South,172,1.4,11.4,52,0.00,,OVC110,0.00,VWS V14.01,2013-11-11 20:41:00,
2013-11-11 15:51:00,45.5,28.4,30.06,South,177,14.2,18.5,51,0.00,,OVC110,0.00,VWS V14.01,2013-11-11 20:51:00,
2013-11-11 16:01:00,45.5,28.9,30.05,South,170,8.5,9.9,52,0.00,,OVC110,0.00,VWS V14.01,2013-11-11 21:01:00,
2013-11-11 16:11:00,45.5,28.9,30.06,South,174,2.8,9.9,52,0.00,,OVC200,0.00,VWS V14.01,2013-11-11 21:11:00,
2013-11-11 16:21:00,45.5,28.9,30.05,SSW,194,4.3,9.9,52,0.00,,OVC200,0.00,VWS V14.01,2013-11-11 21:21:00,
2013-11-11 16:31:00,45.7,29.1,30.04,South,190,4.3,5.7,52,0.00,,OVC200,0.00,VWS V14.01,2013-11-11 21:31:00,
2013-11-11 16:41:00,45.8,29.2,30.04,SW,218,5.7,8.5,52,0.00,,OVC200,0.00,VWS V14.01,2013-11-11 21:41:00,
2013-11-11 16:51:00,45.9,29.3,30.03,WSW,237,2.8,11.4,52,0.00,,OVC200,0.00,VWS V14.01,2013-11-11 21:51:00,
2013-11-11 17:01:00,46.1,29.0,30.04,SSW,208,5.7,9.9,51,0.00,,OVC200,0.00,VWS V14.01,2013-11-11 22:01:00,
2013-11-11 17:11:00,46.3,28.7,30.03,SW,229,14.2,17.0,50,0.00,,BKN200,0.00,VWS V14.01,2013-11-11 22:11:00,
2013-11-11 17:21:00,46.5,28.4,30.03,South,172,2.8,11.4,49,0.00,,BKN200,0.00,VWS V14.01,2013-11-11 22:21:00,
2013-11-11 17:31:00,46.5,28.9,30.03,SSE,157,4.3,11.4,50,0.00,,BKN200,0.00,VWS V14.01,2013-11-11 22:31:00,
2013-11-11 17:41:00,46.6,29.5,30.03,South,183,8.5,11.4,51,0.00,,BKN200,0.00,VWS V14.01,2013-11-11 22:41:00,
2013-11-11 17:51:00,46.8,29.6,30.03,South,177,14.2,14.2,51,0.00,,BKN200,0.00,VWS V14.01,2013-11-11 22:51:00,
2013-11-11 18:01:00,46.9,29.7,30.03,South,191,8.5,18.5,51,0.00,,BKN200,0.00,VWS V14.01,2013-11-11 23:01:00,
2013-11-11 18:11:00,47.1,29.9,30.02,South,183,8.5,12.8,51,0.00,,BKN200,0.00,VWS V14.01,2013-11-11 23:11:00,
2013-11-11 18:21:00,47.3,30.1,30.03,SSE,164,4.3,9.9,51,0.00,,BKN200,0.00,VWS V14.01,2013-11-11 23:21:00,
2013-11-11 18:31:00,47.4,30.2,30.02,South,184,15.6,17.0,51,0.00,,BKN200,0.00,VWS V14.01,2013-11-11 23:31:00,
2013-11-11 18:40:00,47.7,30.5,30.02,SSW,197,9.9,12.8,51,0.00,,BKN200,0.00,VWS V14.01,2013-11-11 23:40:00,
2013-11-11 18:50:00,47.8,30.6,30.02,South,176,8.5,22.7,51,0.00,,BKN200,0.00,VWS V14.01,2013-11-11 23:50:00,
2013-11-11 19:00:00,48.0,30.8,30.02,SSE,162,1.4,8.5,51,0.00,,BKN200,0.00,VWS V14.01,2013-11-12 00:00:00,
2013-11-11 19:10:00,48.0,31.2,30.02,SSE,150,8.5,8.5,52,0.00,,OVC100,0.00,VWS V14.01,2013-11-12 00:10:00,
2013-11-11 19:20:00,48.1,31.8,30.02,South,190,9.9,9.9,53,0.00,,OVC100,0.00,VWS V14.01,2013-11-12 00:20:00,
2013-11-11 19:30:00,48.3,31.5,30.01,SSW,196,5.7,9.9,52,0.00,,OVC100,0.00,VWS V14.01,2013-11-12 00:30:00,
2013-11-11 19:40:00,48.4,31.1,30.02,South,169,7.1,12.8,51,0.00,,OVC100,0.00,VWS V14.01,2013-11-12 00:40:00,
2013-11-11 19:50:00,48.7,30.9,30.01,South,182,7.1,7.1,50,0.00,,OVC100,0.00,VWS V14.01,2013-11-12 00:50:00,
2013-11-11 20:00:00,48.8,31.0,30.01,South,180,2.8,8.5,50,0.00,,OVC100,0.00,VWS V14.01,2013-11-12 01:00:00,
2013-11-11 20:10:00,48.7,30.9,30.01,SSE,150,8.5,12.8,50,0.00,,OVC100,0.00,VWS V14.01,2013-11-12 01:10:00,
2013-11-11 20:20:00,48.9,31.6,30.01,South,170,4.3,8.5,51,0.00,,OVC100,0.00,VWS V14.01,2013-11-12 01:20:00,
2013-11-11 20:30:00,48.8,31.5,30.01,SE,140,1.4,11.4,51,0.00,,OVC100,0.00,VWS V14.01,2013-11-12 01:30:00,
2013-11-11 20:41:00,49.0,31.7,30.01,South,180,9.9,11.4,51,0.00,,OVC100,0.00,VWS V14.01,2013-11-12 01:41:00,
2013-11-11 20:51:00,49.0,31.7,30.01,SSE,158,5.7,9.9,51,0.00,,OVC100,0.00,VWS V14.01,2013-11-12 01:51:00,
2013-11-11 21:01:00,49.0,31.2,30.00,South,183,9.9,15.6,50,0.00,,OVC100,0.00,VWS V14.01,2013-11-12 02:01:00,
2013-11-11 21:11:00,49.1,31.3,30.00,South,186,12.8,12.8,50,0.00,,OVC100,0.00,VWS V14.01,2013-11-12 02:11:00,
2013-11-11 21:21:00,49.0,31.2,30.00,SSE,151,8.5,17.0,50,0.00,,OVC100,0.00,VWS V14.01,2013-11-12 02:21:00,
2013-11-11 21:31:00,48.8,31.5,30.00,SSE,154,5.7,9.9,51,0.00,,OVC100,0.00,VWS V14.01,2013-11-12 02:31:00,
2013-11-11 21:41:00,48.7,31.9,29.99,South,184,8.5,18.5,52,0.00,,OVC100,0.00,VWS V14.01,2013-11-12 02:41:00,
2013-11-11 21:51:00,48.8,32.0,29.99,South,184,2.8,7.1,52,0.00,,OVC100,0.00,VWS V14.01,2013-11-12 02:51:00,
2013-11-11 22:01:00,48.8,32.0,29.99,South,174,9.9,12.8,52,0.00,,OVC100,0.00,VWS V14.01,2013-11-12 03:01:00,
2013-11-11 22:11:00,48.7,31.9,29.99,South,186,7.1,12.8,52,0.00,,OVC085,0.00,VWS V14.01,2013-11-12 03:11:00,
2013-11-11 22:21:00,48.7,31.9,29.98,SSE,153,9.9,14.2,52,0.00,,OVC085,0.00,VWS V14.01,2013-11-12 03:21:00,
2013-11-11 22:31:00,48.7,31.9,29.98,SSE,166,2.8,15.6,52,0.00,,OVC085,0.00,VWS V14.01,2013-11-12 03:31:00,
2013-11-11 22:41:00,48.7,31.9,29.98,South,172,8.5,11.4,52,0.00,,OVC085,0.00,VWS V14.01,2013-11-12 03:41:00,
2013-11-11 22:51:00,48.7,31.9,29.98,SE,144,7.1,11.4,52,0.00,,OVC085,0.00,VWS V14.01,2013-11-12 03:51:00,
2013-11-11 23:01:00,48.6,31.8,29.97,SSE,160,4.3,11.4,52,0.00,,OVC085,0.00,VWS V14.01,2013-11-12 04:01:00,
2013-11-11 23:11:00,48.6,32.3,29.98,South,179,11.4,12.8,53,0.00,,OVC090,0.00,VWS V14.01,2013-11-12 04:11:00,
2013-11-11 23:21:00,48.6,32.7,29.97,South,170,8.5,9.9,54,0.00,,OVC090,0.00,VWS V14.01,2013-11-12 04:21:00,
2013-11-11 23:31:00,48.4,33.0,29.97,SSE,167,14.2,14.2,55,0.00,,OVC090,0.00,VWS V14.01,2013-11-12 04:31:00,
2013-11-11 23:41:00,48.4,33.0,29.97,SSE,154,4.3,8.5,55,0.00,,OVC090,0.00,VWS V14.01,2013-11-12 04:41:00,
2013-11-11 23:51:00,48.4,33.0,29.97,SSE,164,5.7,9.9,55,0.00,,OVC090,0.00,VWS V14.01,2013-11-12 04:51:00,